Location: Taukkyan
(23.1052°N, 94.0030°E)
Time: 11:19:46
(UTC+00:00)

CZ-2C R/B - Pass Details

Date: 06 July 2020
Orbit: 667 x 785 km, 98.2° (Epoch: 14 August)

Event Time Altitude Azimuth Distance (km) Brightness Sun altitude
Rises 22:04:22 0° 2° (N) 3,122 6.2 -12.9°
Reaches altitude 10° 22:06:46 10° 355° (N) 2,181 5.2 -12.5°
Maximum altitude 22:11:14 41° 286° (WNW) 1,000 2.8 -11.6°
Enters shadow 22:15:10 12° 218° (SW) 1,968 4.1 -10.8°
